Regional Weather Roundup
Issued by NWS Upton, NY

Current Version | Previous Version | Graphics & Text | Print | Product List | Glossary Off
Versions: 1 2 3 4 5 6 7 8 9 10 11 12 13 14 15 16 17 18 19 20 21 22 23 24 25 26 27 28 29 30 31 32 33 34 35 36 37 38 39 40 41 42 43 44 45 46 47 48 49 50

533
ASUS41 KOKX 221808
RWROKX

REGIONAL WEATHER ROUNDUP
NATIONAL WEATHER SERVICE NEW YORK NY
200 PM EDT TUE AUG 22 2017

NOTE: "FAIR" INDICATES FEW OR NO CLOUDS BELOW 12,000 FEET WITH NO
SIGNIFICANT WEATHER AND/OR OBSTRUCTIONS TO VISIBILITY.

NYZ071-072-176-178-NJZ106-104-221900-
NEW YORK CITY METRO AREA

CITY           SKY/WX    TMP DP  RH WIND       PRES   REMARKS
Central Park   MOSUNNY   87  74  64 VRB5      29.95F HX  95
Bronx Bot Gard   N/A     88  72  58 SW14      29.92F HX  94
LaGuardia APRT PTSUNNY   88  75  65 S14       29.91F HX  97
Kennedy INTL   MOSUNNY   85  78  80 S17       29.95F HX  96
Breezy Point     N/A     79 N/A N/A S10         N/A
Newark/Liberty PTSUNNY   87  73  62 S14G22    29.91F HX  94
Teterboro      MOSUNNY   89  75  63 S12G21    29.90F HX  99
$$

NYZ177-179-078>081-221900-
LONG ISLAND NEW YORK

CITY           SKY/WX    TMP DP  RH WIND       PRES   REMARKS
Jones Beach      N/A     79 N/A N/A S10G16      N/A
Matinecock PT    N/A     84 N/A N/A SW10        N/A
Farmingdale    PTSUNNY   84  75  74 SW12      29.94F HX  92
MacArthur/ISP  CLOUDY    81  75  82 S16       29.94F
Shirley        CLOUDY    82  77  84 S15       29.96F HX  90
Mt Sinai Harb    N/A     84 N/A N/A S8          N/A
Westhampton    CLOUDY    80  73  79 SW14G21   29.97F
East Hampton   CLOUDY    79  74  84 SW14G20   29.96S
Montauk          N/A     78  75  90 SW7       29.97F
$$

NYZ052-065-067-221900-
HUDSON VALLEY

CITY           SKY/WX    TMP DP  RH WIND       PRES   REMARKS
White Plains   MOSUNNY   87  73  62 S13G18    29.92F HX  94
Larchmont Harb   N/A     81 N/A N/A S14         N/A
Croton On Huds   N/A     86 N/A N/A S7G13       N/A
Newburgh       MOSUNNY   88  72  58 SW9G17    29.91F HX  94
Montgomery     SUNNY     89  72  56 SW14G22   29.88F HX  96
Poughkeepsie   MOSUNNY   87  70  56 S9        29.87F HX  92
Albany         MOSUNNY   89  71  55 S17G23    29.82F HX  95
$$

NJZ001-105-106-008-010-013-015-019>022-104-221900-
NEW JERSEY

CITY           SKY/WX    TMP DP  RH WIND       PRES   REMARKS
Newark/Liberty PTSUNNY   87  73  62 S14G22    29.91F HX  94
Teterboro      MOSUNNY   89  75  63 S12G21    29.90F HX  99
Caldwell       MOSUNNY   86  75  69 S8        29.91F HX  95
Somerville     PTSUNNY   89  76  65 S9        29.90F HX 100
Linden         NOT AVBL
Perth Amboy      N/A     86 N/A N/A S15G22      N/A
Sussex         MOSUNNY   86  73  65 SW6       29.90F HX  93
Andover          N/A     86  71  60 S8        29.93F HX  91
Trenton        MOSUNNY   90  74  59 SW16G22   29.93F HX  99
Millville      SUNNY     91  77  63 VRB6      29.97F HX 104
Atlantic City  MOSUNNY   90  73  57 SW15      29.96F HX  98
Wrightstown    SUNNY     90  75  61 SW16      29.91F HX  99
Toms River     PTSUNNY   91  74  57 S17G23    29.95F HX 100
Belmar         MOSUNNY   91  73  55 SW13G18   29.94F HX  99
$$

PAZ047>061-062-071-221900-
EASTERN PENNSYLVANIA

CITY           SKY/WX    TMP DP  RH WIND       PRES   REMARKS
Philadelphia   MOSUNNY   89  74  60 SW14      29.94F HX  98
Allentown      SUNNY     88  72  58 S10       29.92F HX  94
Scranton       MOSUNNY   88  67  49 SW10G22   29.90F HX  91
$$

CTZ002-004>006-009-010-012-RIZ004-006-007-MAZ004-011-015-221900-
SOUTHERN NEW ENGLAND
 IN CT

CITY           SKY/WX    TMP DP  RH WIND       PRES   REMARKS
Bradley INTL   PTSUNNY   90  72  55 S14       29.89F HX  97
Hartford       MOSUNNY   88  74  63 S16G23    29.89F HX  96
Danbury        MOSUNNY   88  72  58 S10G21    29.93F HX  94
Wtrbury/Oxford PTSUNNY   84  73  69 S10G20    29.95F HX  90
Norwalk Harbor   N/A     79 N/A N/A MISG        N/A
Bridgeport     SUNNY     85  73  67 SW7       29.92F HX  91
Meriden        SUNNY     86  72  62 S12       29.92F HX  92
New Haven      MOSUNNY   84  73  69 S6        29.93F HX  90
Chester        FAIR      84  73  70 S9        29.95F HX  91
Groton         MOSUNNY   82  74  76 S8        29.94F
Wilimantic     PTSUNNY   88  72  58 SW10G23   29.92F HX  94

 IN RI

CITY           SKY/WX    TMP DP  RH WIND       PRES   REMARKS
Providence     MOSUNNY   89  72  56 SW13G22   29.92F HX  96
Block Island   CLOUDY    75  73  93 SW14      29.97F
Westerly       MOSUNNY   83  74  74 SW9G18    29.96F
 IN MA

CITY           SKY/WX    TMP DP  RH WIND       PRES   REMARKS
Boston         MOSUNNY   89  70  53 S16       29.88F HX  94
Worcester      PTSUNNY   83  68  60 SW10G20   29.93F
Westfield      SUNNY     88  73  61 S15G24    29.88F HX  95
Provincetown   CLOUDY    80  73  79 SW15G21   29.93F
Nantucket      CLOUDY    72  70  93 S13       29.99F
$$

ANZ330-335-338-340-345-350-353-355-221900-
COASTAL MARINE OBSERVATIONS


STATION/POSITION TIME  SKY/WX   TEMP    WIND        PRES    VSBY  WAVE
                                AIR SEA DIR/SP/G                  HT/PER
                 (UTC)          (F)     (DEG/KT/KT) (MB)    (MI)  (FT/S)
NY HARB ENTRANCE 1750            77 76  190/ 16/ 17 1013.3          3/10
GREAT SOUTH BAY  1730            77 79  220/ 12/ 14   N/A
23 SSW MONTAUK P 1650            75 73              1015.8          3/ 5
15 E BARNEGAT LI 1730               77                N/A           4/ 5
HUDSON CANYON    1650            77 76  210/ 16/ 17 1015.8          3/ 5
KINGS POINT      1742            82 74  230/ 13/ 17 1013.2
EXECUTION ROCKS  NOT AVBL
WESTERN LI SOUND NOT AVBL
CENTRAL LI SOUND NOT AVBL
EASTERN LI SOUND NOT AVBL
ROBBINS REEF     1742                   160/ 15/ 16 1014.2
$$


>>>>>>>>>>>>>>>>>>>>>>>>>>>> KEY <<<<<<<<<<<<<<<<<<<<<<<<<<<
>                                                          <
>     SKY/WX - Sky Condition/Present Weather               <
>     TMP    - Temperature in Fahrenheit                   <
>     DP     - Dew Point in Fahrenheit                     <
>     RH     - Relative Humidity in Percent                <
>     WIND   - Direction (from) and Speed in MPH           <
>     PRES   - Mean Sea Level Pressure (inches of Hg)      <
>     WCI    - Wind Chill Index                            <
>     VSB    - VISIBILITY IN MILES                         <
>     HX     - HEAT INDEX                                  <
>     TC     - TEMPERATURE IN CELSIUS                      <
>     VRB    - VARIABLE WIND DIRECTION                     <
>                                                          <
>>>>>>>>>>>>>>>>>>>>>>>>>>>> KEY <<<<<<<<<<<<<<<<<<<<<<<<<<<




USA.gov is the U.S. government's official web portal to all federal, state and local government web resources and services.